Location: Bli��� Lhota
(48.7570°N, 14.0120°E)
Time: 06:28:00
(UTC+00:00)

Cosmos 2082 Rocket - Pass Details

Date: 18 September 2020
Orbit: 834 x 853 km, 71.0° (Epoch: 27 October)

Event Time Altitude Azimuth Distance (km) Brightness Sun altitude
Rises 18:55:40 0° 336° (NNW) 3,393 6.1 -17.8°
Reaches altitude 10° 18:59:02 10° 356° (N) 2,456 5.0 -18.3°
Maximum altitude 19:02:39 17° 36° (NE) 1,994 4.0 -18.8°
Enters shadow 19:04:32 15° 60° (ENE) 2,128 4.0 -19.1°
